Location: Newark
(15.4608°S, 41.1635°W)
Time: 08:44:20
(UTC+00:00)

Transit 4A - Pass Details

Date: 06 March 2021
Orbit: 869 x 975 km, 66.8° (Epoch: 22 April)

Event Time Altitude Azimuth Distance (km) Brightness Sun altitude
Rises 09:28:34 0° 184° (S) 3,630 11.0 9.3°
Reaches altitude 10° 09:31:29 10° 172° (S) 2,695 10.5 10.0°
Maximum altitude 09:36:50 28° 114° (ESE) 1,715 10.7 11.3°
Drops below altitude 10° 09:42:11 10° 57° (ENE) 2,712 11.4 12.6°
Sets 09:45:06 0° 46° (NE) 3,657 11.7 13.3°
